QPF
0.00 0.00 0.00 0.00 0.01 0.01 0.01 0.02 0.03 0.03 0.02 0.02 0.01 0.01 0.02 0.02 0.03 0.03 0.03 0.03 0.03 0.03 0.03 0.02 0.01 0.01 0.00 0.00 0.00 0.00 0.00 0.00 0.00 0.00 0.00 0.01 0.01 0.02 0.02 0.01 0.00 0.00 0.01
0.00 0.00 0.00 0.00 0.01 0.01 0.01 0.01 0.02 0.02 0.01 0.01 0.01 0.01 0.02 0.02 0.02 0.02 0.02 0.02 0.02 0.02 0.01 0.01 0.01 0.00 0.00 0.00 0.00 0.00 0.00 0.00 0.00 0.00 0.00 0.00 0.01 0.02 0.02 0.01 0.01 0.01 0.00
0.00 0.00 0.00 0.00 0.00 0.01 0.01 0.01 0.01 0.01 0.01 0.01 0.01 0.01 0.01 0.01 0.01 0.01 0.01 0.01 0.02 0.01 0.01 0.01 0.00 0.00 0.00 0.00 0.00 0.00 0.00 0.00 0.00 0.00 0.00 0.01 0.01 0.01 0.02 0.01 0.01 0.01 0.00
0.00 0.00 0.00 0.00 0.00 0.01 0.01 0.00 0.00 0.00 0.00 0.00 0.00 0.00 0.00 0.00 0.01 0.01 0.01 0.01 0.01 0.01 0.01 0.00 0.00 0.00 0.00 0.00 0.00 0.00 0.00 0.00 0.00 0.00 0.00 0.00 0.01 0.01 0.02 0.03 0.02 0.02 0.02
0.00 0.00 0.00 0.00 0.00 0.01 0.00 0.00 0.00 0.00 0.00 0.00 0.00 0.00 0.00 0.00 0.00 0.01 0.01 0.01 0.01 0.01 0.01 0.00 0.00 0.00 0.00 0.00 0.00 0.00 0.00 0.00 0.00 0.00 0.00 0.00 0.01 0.01 0.02 0.05 0.06 0.05 0.05
0.00 0.00 0.00 0.00 0.00 0.01 0.01 0.00 0.00 0.00 0.00 0.00 0.00 0.00 0.00 0.00 0.00 0.01 0.01 0.01 0.01 0.01 0.01 0.00 0.00 0.00 0.00 0.00 0.00 0.00 0.00 0.00 0.00 0.00 0.00 0.00 0.00 0.01 0.01 0.04 0.07 0.09 0.08
0.00 0.00 0.00 0.00 0.00 0.01 0.01 0.01 0.00 0.00 0.00 0.00 0.00 0.00 0.00 0.00 0.00 0.01 0.01 0.01 0.01 0.02 0.02 0.01 0.01 0.00 0.00 0.00 0.00 0.00 0.00 0.00 0.00 0.00 0.00 0.00 0.00 0.00 0.00 0.01 0.04 0.06 0.07
0.00 0.00 0.00 0.00 0.00 0.01 0.01 0.01 0.01 0.01 0.00 0.00 0.00 0.00 0.00 0.00 0.00 0.00 0.01 0.02 0.02 0.03 0.03 0.02 0.01 0.00 0.00 0.00 0.00 0.00 0.00 0.00 0.00 0.00 0.00 0.00 0.00 0.00 0.00 0.01 0.01 0.02 0.03
0.00 0.00 0.00 0.00 0.00 0.00 0.01 0.01 0.01 0.01 0.00 0.00 0.00 0.00 0.00 0.00 0.00 0.00 0.01 0.02 0.03 0.03 0.03 0.02 0.00 0.00 0.00 0.00 0.00 0.00 0.00 0.00 0.00 0.00 0.00 0.00 0.00 0.00 0.01 0.00 0.00 0.01 0.01
0.00 0.00 0.00 0.00 0.00 0.00 0.00 0.00 0.00 0.00 0.00 0.00 0.00 0.00 0.00 0.00 0.00 0.00 0.01 0.02 0.02 0.02 0.01 0.00 0.00 0.00 0.00 0.00 0.00 0.00 0.00 0.00 0.00 0.00 0.00 0.00 0.00 0.00 0.00 0.01 0.00 0.00 0.00
0.00 0.00 0.00 0.00 0.00 0.00 0.00 0.00 0.00 0.00 0.00 0.00 0.00 0.00 0.00 0.00 0.00 0.01 0.00 0.01 0.01 0.01 0.01 0.00 0.00 0.00 0.00 0.00 0.00 0.00 0.00 0.00 0.00 0.00 0.00 0.00 0.00 0.00 0.00 0.01 0.01 0.00 0.00
0.00 0.00 0.00 0.00 0.00 0.00 0.00 0.00 0.00 0.00 0.00 0.00 0.00 0.00 0.00 0.01 0.02 0.01 0.01 0.01 0.01 0.01 0.00 0.00 0.00 0.00 0.00 0.00 0.00 0.00 0.00 0.00 0.00 0.00 0.00 0.00 0.00 0.00 0.01 0.01 0.01 0.00 0.00
0.00 0.00 0.00 0.00 0.00 0.00 0.00 0.00 0.00 0.00 0.00 0.00 0.00 0.00 0.01 0.01 0.01 0.00 0.01 0.01 0.01 0.01 0.01 0.00 0.00 0.00 0.00 0.00 0.00 0.00 0.00 0.00 0.00 0.00 0.00 0.00 0.00 0.00 0.01 0.01 0.01 0.00 0.00
0.00 0.00 0.00 0.00 0.00 0.00 0.00 0.00 0.00 0.00 0.00 0.00 0.00 0.00 0.01 0.02 0.01 0.01 0.01 0.01 0.02 0.02 0.02 0.00 0.00 0.00 0.00 0.00 0.00 0.00 0.00 0.00 0.00 0.00 0.00 0.00 0.00 0.00 0.00 0.01 0.00 0.00 0.00
0.00 0.00 0.00 0.00 0.00 0.00 0.00 0.00 0.00 0.00 0.00 0.00 0.00 0.00 0.00 0.01 0.01 0.01 0.01 0.02 0.02 0.01 0.01 0.00 0.00 0.00 0.00 0.00 0.00 0.00 0.00 0.00 0.00 0.00 0.00 0.00 0.00 0.00 0.00 0.00 0.00 0.00 0.00
0.00 0.00 0.00 0.00 0.00 0.00 0.00 0.00 0.00 0.00 0.00 0.00 0.00 0.00 0.00 0.01 0.01 0.02 0.02 0.03 0.02 0.02 0.01 0.01 0.00 0.00 0.00 0.00 0.00 0.00 0.00 0.00 0.00 0.00 0.00 0.00 0.00 0.00 0.00 0.00 0.00 0.00 0.00
0.00 0.00 0.00 0.00 0.00 0.00 0.00 0.00 0.00 0.00 0.00 0.01 0.01 0.01 0.01 0.01 0.02 0.04 0.04 0.04 0.04 0.03 0.02 0.01 0.01 0.01 0.01 0.00 0.01 0.01 0.01 0.01 0.01 0.01 0.01 0.01 0.00 0.00 0.00 0.00 0.00 0.00 0.00
0.00 0.00 0.00 0.00 0.00 0.00 0.00 0.00 0.00 0.00 0.01 0.02 0.02 0.02 0.02 0.03 0.04 0.06 0.06 0.06 0.06 0.05 0.05 0.05 0.04 0.03 0.04 0.04 0.03 0.03 0.03 0.02 0.02 0.01 0.01 0.01 0.01 0.00 0.00 0.00 0.00 0.00 0.00
0.00 0.00 0.00 0.00 0.00 0.00 0.00 0.00 0.00 0.01 0.02 0.03 0.04 0.06 0.06 0.08 0.10 0.11 0.10 0.11 0.11 0.11 0.10 0.09 0.09 0.09 0.08 0.07 0.05 0.04 0.03 0.02 0.01 0.01 0.01 0.00 0.00 0.00 0.00 0.00 0.00 0.00 0.00
0.00 0.00 0.00 0.00 0.00 0.00 0.00 0.00 0.01 0.03 0.06 0.10 0.13 0.17 0.20 0.22 0.22 0.21 0.19 0.19 0.18 0.15 0.13 0.12 0.11 0.10 0.09 0.07 0.04 0.02 0.02 0.01 0.00 0.00 0.00 0.00 0.00 0.00 0.00 0.00 0.00 0.00 0.00
0.00 0.00 0.00 0.00 0.01 0.01 0.02 0.04 0.07 0.14 0.23 0.33 0.44 0.50 0.48 0.45 0.42 0.39 0.32 0.27 0.22 0.17 0.14 0.11 0.11 0.09 0.07 0.05 0.03 0.02 0.01 0.00 0.00 0.00 0.00 0.00 0.00 0.00 0.00 0.00 0.00 0.00 0.00
0.00 0.00 0.00 0.01 0.03 0.05 0.11 0.20 0.35 0.51 0.56 0.62 0.63 0.61 0.62 0.62 0.60 0.56 0.50 0.43 0.32 0.24 0.19 0.15 0.13 0.10 0.08 0.05 0.03 0.02 0.01 0.00 0.00 0.00 0.00 0.00 0.00 0.00 0.00 0.00 0.00 0.00 0.00
0.00 0.01 0.01 0.02 0.08 0.15 0.25 0.43 0.64 0.78 0.81 0.82 0.77 0.69 0.66 0.67 0.65 0.64 0.63 0.53 0.40 0.30 0.24 0.19 0.15 0.12 0.07 0.03 0.01 0.00 0.00 0.00 0.00 0.00 0.00 0.00 0.00 0.00 0.00 0.00 0.00 0.00 0.00
0.00 0.01 0.03 0.05 0.16 0.27 0.38 0.58 0.75 0.96 1.14 1.17 1.02 0.80 0.66 0.61 0.59 0.54 0.49 0.43 0.37 0.28 0.19 0.12 0.07 0.03 0.01 0.00 0.00 0.00 0.00 0.00 0.00 0.00 0.00 0.00 0.00 0.00 0.00 0.00 0.00 0.00 0.00
0.00 0.01 0.04 0.07 0.17 0.30 0.45 0.62 0.77 0.97 1.08 1.07 0.85 0.63 0.54 0.55 0.54 0.49 0.41 0.33 0.23 0.14 0.06 0.03 0.01 0.00 0.00 0.00 0.00 0.00 0.00 0.00 0.00 0.00 0.00 0.00 0.00 0.00 0.00 0.00 0.00 0.00 0.00
0.01 0.01 0.03 0.07 0.15 0.25 0.37 0.48 0.61 0.71 0.72 0.61 0.52 0.51 0.54 0.48 0.40 0.33 0.24 0.15 0.09 0.04 0.02 0.01 0.00 0.00 0.00 0.00 0.00 0.00 0.00 0.00 0.00 0.00 0.00 0.00 0.00 0.00 0.00 0.00 0.00 0.00 0.00
MSLP
1012.30 1012.40 1012.70 1013.16 1013.66 1014.14 1014.50 1014.73 1014.83 1014.87 1014.92 1015.05 1015.30 1015.67 1016.13 1016.62 1017.05 1017.38 1017.58 1017.66 1017.65 1017.61 1017.60 1017.65 1017.77 1017.94 1018.13 1018.29 1018.38 1018.40 1018.35 1018.26 1018.18 1018.15 1018.20 1018.31 1018.49 1018.70 1018.90 1019.06 1019.18 1019.25 1019.29
1012.05 1012.24 1012.64 1013.18 1013.75 1014.26 1014.65 1014.87 1014.97 1014.99 1015.02 1015.14 1015.40 1015.79 1016.28 1016.79 1017.24 1017.58 1017.78 1017.84 1017.82 1017.78 1017.77 1017.83 1017.98 1018.18 1018.38 1018.55 1018.63 1018.61 1018.52 1018.38 1018.26 1018.19 1018.22 1018.34 1018.54 1018.78 1019.01 1019.21 1019.35 1019.44 1019.49
1011.73 1012.02 1012.51 1013.13 1013.77 1014.34 1014.76 1015.02 1015.12 1015.14 1015.17 1015.29 1015.53 1015.91 1016.38 1016.87 1017.30 1017.63 1017.81 1017.86 1017.85 1017.82 1017.85 1017.95 1018.13 1018.36 1018.58 1018.74 1018.80 1018.74 1018.58 1018.38 1018.21 1018.10 1018.11 1018.23 1018.45 1018.72 1019.00 1019.24 1019.42 1019.54 1019.61
1011.44 1011.82 1012.38 1013.07 1013.79 1014.42 1014.89 1015.18 1015.32 1015.36 1015.39 1015.50 1015.72 1016.06 1016.48 1016.92 1017.30 1017.59 1017.75 1017.80 1017.81 1017.82 1017.89 1018.05 1018.28 1018.54 1018.77 1018.91 1018.93 1018.81 1018.59 1018.33 1018.10 1017.95 1017.94 1018.07 1018.31 1018.62 1018.94 1019.23 1019.46 1019.62 1019.73
1011.26 1011.70 1012.33 1013.08 1013.84 1014.52 1015.05 1015.39 1015.57 1015.64 1015.69 1015.78 1015.98 1016.27 1016.62 1017.00 1017.32 1017.56 1017.70 1017.76 1017.80 1017.86 1017.99 1018.20 1018.47 1018.76 1018.99 1019.10 1019.06 1018.89 1018.60 1018.28 1018.00 1017.83 1017.82 1017.95 1018.22 1018.56 1018.93 1019.26 1019.53 1019.74 1019.88
1011.23 1011.71 1012.37 1013.15 1013.94 1014.66 1015.23 1015.62 1015.85 1015.97 1016.04 1016.14 1016.31 1016.55 1016.85 1017.16 1017.43 1017.62 1017.74 1017.82 1017.88 1017.99 1018.18 1018.43 1018.73 1019.02 1019.23 1019.30 1019.21 1018.98 1018.64 1018.28 1017.97 1017.80 1017.78 1017.94 1018.23 1018.61 1019.01 1019.37 1019.67 1019.90 1020.07
1011.33 1011.82 1012.49 1013.27 1014.07 1014.80 1015.40 1015.83 1016.11 1016.28 1016.39 1016.51 1016.67 1016.89 1017.15 1017.41 1017.63 1017.79 1017.90 1017.99 1018.08 1018.23 1018.45 1018.73 1019.03 1019.30 1019.47 1019.49 1019.35 1019.06 1018.69 1018.31 1018.01 1017.84 1017.86 1018.05 1018.37 1018.77 1019.18 1019.56 1019.87 1020.10 1020.27
1011.51 1012.00 1012.64 1013.39 1014.17 1014.89 1015.49 1015.95 1016.27 1016.49 1016.65 1016.81 1016.99 1017.21 1017.45 1017.68 1017.87 1018.02 1018.13 1018.23 1018.35 1018.51 1018.74 1019.02 1019.30 1019.53 1019.64 1019.61 1019.42 1019.10 1018.71 1018.34 1018.06 1017.94 1018.00 1018.23 1018.58 1018.99 1019.41 1019.78 1020.07 1020.29 1020.44
1011.68 1012.15 1012.75 1013.45 1014.17 1014.85 1015.44 1015.90 1016.26 1016.52 1016.73 1016.93 1017.16 1017.40 1017.64 1017.88 1018.07 1018.22 1018.34 1018.45 1018.58 1018.75 1018.97 1019.21 1019.45 1019.62 1019.67 1019.58 1019.36 1019.02 1018.65 1018.32 1018.09 1018.03 1018.15 1018.42 1018.80 1019.22 1019.63 1019.98 1020.24 1020.42 1020.53
1011.79 1012.23 1012.78 1013.41 1014.06 1014.67 1015.21 1015.66 1016.02 1016.31 1016.57 1016.83 1017.09 1017.37 1017.65 1017.90 1018.11 1018.28 1018.41 1018.53 1018.66 1018.83 1019.02 1019.23 1019.41 1019.52 1019.52 1019.39 1019.14 1018.82 1018.49 1018.21 1018.06 1018.07 1018.25 1018.57 1018.97 1019.40 1019.79 1020.10 1020.32 1020.45 1020.53
1011.80 1012.22 1012.72 1013.26 1013.82 1014.35 1014.83 1015.23 1015.58 1015.88 1016.17 1016.46 1016.77 1017.09 1017.40 1017.69 1017.93 1018.12 1018.28 1018.41 1018.55 1018.70 1018.87 1019.04 1019.17 1019.23 1019.20 1019.05 1018.81 1018.52 1018.24 1018.04 1017.97 1018.05 1018.29 1018.65 1019.07 1019.49 1019.86 1020.13 1020.31 1020.39 1020.43
1011.71 1012.12 1012.57 1013.04 1013.51 1013.95 1014.34 1014.68 1014.99 1015.28 1015.58 1015.89 1016.23 1016.58 1016.92 1017.24 1017.52 1017.74 1017.92 1018.08 1018.22 1018.38 1018.53 1018.68 1018.78 1018.83 1018.78 1018.64 1018.43 1018.20 1017.99 1017.86 1017.86 1018.02 1018.31 1018.69 1019.12 1019.52 1019.86 1020.10 1020.24 1020.29 1020.30
1011.56 1011.96 1012.37 1012.78 1013.17 1013.52 1013.83 1014.11 1014.37 1014.62 1014.90 1015.22 1015.57 1015.93 1016.30 1016.65 1016.95 1017.20 1017.41 1017.59 1017.76 1017.93 1018.09 1018.24 1018.35 1018.41 1018.38 1018.29 1018.14 1017.97 1017.83 1017.78 1017.84 1018.03 1018.35 1018.74 1019.15 1019.54 1019.84 1020.05 1020.16 1020.18 1020.17
1011.35 1011.76 1012.16 1012.53 1012.86 1013.15 1013.39 1013.61 1013.82 1014.04 1014.30 1014.59 1014.93 1015.30 1015.67 1016.03 1016.35 1016.63 1016.87 1017.08 1017.28 1017.48 1017.67 1017.85 1018.00 1018.10 1018.13 1018.10 1018.02 1017.93 1017.86 1017.86 1017.96 1018.18 1018.49 1018.85 1019.24 1019.59 1019.86 1020.04 1020.12 1020.13 1020.10
1011.08 1011.52 1011.93 1012.29 1012.60 1012.86 1013.08 1013.27 1013.46 1013.65 1013.88 1014.16 1014.47 1014.82 1015.19 1015.54 1015.87 1016.17 1016.43 1016.68 1016.91 1017.14 1017.38 1017.61 1017.82 1017.99 1018.10 1018.16 1018.16 1018.14 1018.13 1018.17 1018.28 1018.48 1018.75 1019.08 1019.41 1019.71 1019.94 1020.09 1020.16 1020.16 1020.12
1010.74 1011.21 1011.65 1012.04 1012.38 1012.67 1012.92 1013.13 1013.32 1013.52 1013.75 1014.01 1014.30 1014.63 1014.97 1015.31 1015.63 1015.93 1016.21 1016.48 1016.74 1017.02 1017.30 1017.60 1017.88 1018.13 1018.33 1018.47 1018.55 1018.60 1018.63 1018.68 1018.78 1018.93 1019.15 1019.40 1019.67 1019.91 1020.10 1020.22 1020.27 1020.26 1020.22
1010.28 1010.79 1011.27 1011.73 1012.15 1012.53 1012.86 1013.14 1013.40 1013.64 1013.89 1014.16 1014.44 1014.75 1015.07 1015.38 1015.69 1015.98 1016.25 1016.53 1016.81 1017.12 1017.45 1017.79 1018.14 1018.47 1018.75 1018.97 1019.12 1019.21 1019.27 1019.31 1019.37 1019.47 1019.61 1019.78 1019.97 1020.15 1020.30 1020.39 1020.43 1020.41 1020.35
1009.70 1010.23 1010.77 1011.32 1011.86 1012.37 1012.83 1013.25 1013.62 1013.95 1014.25 1014.55 1014.84 1015.14 1015.43 1015.73 1016.00 1016.27 1016.53 1016.80 1017.09 1017.40 1017.76 1018.14 1018.53 1018.92 1019.26 1019.54 1019.74 1019.86 1019.93 1019.95 1019.96 1019.99 1020.05 1020.14 1020.26 1020.38 1020.48 1020.55 1020.58 1020.55 1020.49
1009.00 1009.54 1010.14 1010.79 1011.47 1012.14 1012.77 1013.36 1013.88 1014.33 1014.73 1015.08 1015.40 1015.70 1015.99 1016.26 1016.51 1016.75 1016.98 1017.23 1017.50 1017.80 1018.15 1018.54 1018.96 1019.37 1019.74 1020.06 1020.29 1020.43 1020.49 1020.48 1020.44 1020.40 1020.39 1020.40 1020.45 1020.52 1020.60 1020.65 1020.67 1020.65 1020.58
1008.26 1008.79 1009.43 1010.17 1010.98 1011.82 1012.64 1013.40 1014.09 1014.69 1015.19 1015.62 1015.99 1016.32 1016.61 1016.86 1017.10 1017.31 1017.52 1017.73 1017.97 1018.24 1018.57 1018.94 1019.34 1019.75 1020.13 1020.45 1020.69 1020.83 1020.87 1020.84 1020.75 1020.65 1020.57 1020.53 1020.52 1020.55 1020.60 1020.65 1020.68 1020.66 1020.60
1007.60 1008.09 1008.74 1009.55 1010.46 1011.44 1012.42 1013.36 1014.20 1014.94 1015.57 1016.08 1016.52 1016.88 1017.18 1017.45 1017.67 1017.87 1018.06 1018.24 1018.44 1018.67 1018.95 1019.28 1019.65 1020.03 1020.39 1020.70 1020.93 1021.05 1021.07 1021.01 1020.88 1020.73 1020.60 1020.50 1020.46 1020.46 1020.50 1020.54 1020.58 1020.58 1020.53
1007.18 1007.59 1008.21 1009.03 1010.01 1011.08 1012.18 1013.25 1014.22 1015.08 1015.81 1016.41 1016.91 1017.32 1017.66 1017.95 1018.19 1018.39 1018.57 1018.73 1018.89 1019.08 1019.31 1019.58 1019.90 1020.23 1020.56 1020.83 1021.03 1021.13 1021.12 1021.03 1020.87 1020.68 1020.50 1020.37 1020.29 1020.27 1020.29 1020.34 1020.39 1020.41 1020.38
1007.12 1007.43 1007.98 1008.76 1009.74 1010.84 1012.00 1013.13 1014.18 1015.13 1015.93 1016.61 1017.17 1017.64 1018.03 1018.36 1018.64 1018.86 1019.04 1019.20 1019.34 1019.50 1019.68 1019.89 1020.15 1020.42 1020.69 1020.92 1021.08 1021.15 1021.11 1020.99 1020.79 1020.57 1020.35 1020.18 1020.06 1020.02 1020.03 1020.08 1020.13 1020.16 1020.16
1007.51 1007.70 1008.14 1008.84 1009.75 1010.81 1011.95 1013.09 1014.17 1015.14 1015.99 1016.72 1017.34 1017.87 1018.32 1018.71 1019.04 1019.30 1019.51 1019.68 1019.82 1019.95 1020.09 1020.25 1020.45 1020.66 1020.87 1021.05 1021.17 1021.19 1021.12 1020.96 1020.73 1020.47 1020.21 1020.00 1019.85 1019.77 1019.75 1019.78 1019.83 1019.87 1019.88
1008.35 1008.40 1008.71 1009.28 1010.08 1011.05 1012.11 1013.20 1014.25 1015.22 1016.08 1016.83 1017.49 1018.07 1018.59 1019.04 1019.42 1019.75 1020.00 1020.19 1020.34 1020.45 1020.56 1020.68 1020.82 1020.98 1021.13 1021.26 1021.32 1021.31 1021.21 1021.01 1020.74 1020.44 1020.14 1019.88 1019.68 1019.55 1019.49 1019.49 1019.51 1019.54 1019.56
1009.54 1009.48 1009.64 1010.07 1010.72 1011.55 1012.50 1013.49 1014.47 1015.39 1016.24 1017.00 1017.69 1018.31 1018.88 1019.38 1019.83 1020.20 1020.50 1020.72 1020.88 1020.99 1021.08 1021.16 1021.25 1021.36 1021.46 1021.54 1021.56 1021.51 1021.37 1021.14 1020.84 1020.50 1020.15 1019.84 1019.58 1019.40 1019.28 1019.23 1019.21 1019.21 1019.21
Thickness
5805 5801 5788 5784 5781 5779 5778 5777 5775 5773 5771 5768 5766 5763 5761 5760 5758 5756 5754 5753 5752 5751 5750 5749 5749 5749 5748 5747 5747 5747 5747 5747 5747 5747 5747 5746 5746 5746 5745 5744 5744 5744 5740
5807 5799 5785 5781 5778 5776 5775 5773 5772 5770 5767 5765 5762 5760 5758 5756 5754 5752 5751 5749 5748 5747 5747 5746 5746 5745 5744 5743 5743 5742 5742 5742 5743 5743 5744 5743 5742 5741 5740 5740 5741 5740 5736
5803 5795 5783 5778 5775 5773 5771 5769 5768 5766 5764 5761 5759 5757 5755 5753 5751 5749 5747 5746 5745 5744 5743 5743 5742 5741 5740 5739 5738 5738 5738 5738 5739 5740 5742 5745 5741 5737 5736 5735 5735 5733 5732
5801 5792 5784 5776 5772 5769 5767 5765 5764 5762 5760 5757 5755 5753 5751 5749 5747 5745 5743 5742 5741 5740 5740 5739 5738 5737 5736 5735 5734 5734 5734 5734 5735 5737 5742 5744 5740 5734 5732 5731 5729 5728 5727
5798 5792 5782 5773 5769 5766 5763 5761 5759 5757 5755 5753 5751 5749 5747 5745 5743 5741 5739 5738 5737 5737 5736 5735 5734 5733 5732 5731 5730 5730 5731 5731 5732 5735 5742 5740 5736 5729 5727 5726 5725 5724 5722
5797 5791 5780 5772 5767 5764 5761 5758 5756 5754 5751 5749 5747 5745 5743 5741 5739 5737 5736 5734 5734 5733 5732 5731 5730 5729 5728 5727 5727 5727 5728 5729 5731 5738 5737 5735 5733 5726 5723 5722 5721 5720 5718
5797 5791 5780 5771 5766 5762 5758 5755 5753 5751 5748 5746 5744 5742 5739 5737 5735 5733 5732 5731 5730 5729 5729 5727 5726 5725 5724 5724 5724 5724 5725 5727 5732 5737 5734 5732 5728 5722 5719 5718 5717 5715 5714
5797 5792 5781 5770 5765 5760 5757 5754 5751 5749 5746 5743 5741 5738 5736 5734 5731 5730 5728 5727 5727 5726 5725 5724 5723 5722 5721 5720 5720 5721 5722 5723 5729 5732 5730 5729 5721 5717 5715 5713 5712 5711 5710
5797 5793 5783 5774 5766 5760 5756 5753 5750 5747 5744 5742 5739 5736 5733 5731 5729 5727 5725 5725 5724 5723 5722 5721 5720 5719 5718 5717 5717 5717 5718 5721 5727 5728 5726 5723 5716 5713 5711 5709 5708 5707 5706
5797 5793 5785 5778 5772 5765 5759 5753 5749 5746 5743 5740 5737 5734 5732 5729 5727 5725 5724 5722 5721 5720 5719 5718 5717 5716 5715 5714 5714 5714 5715 5718 5726 5726 5724 5717 5711 5708 5706 5705 5704 5703 5702
5794 5791 5786 5781 5775 5770 5764 5756 5750 5745 5741 5738 5736 5733 5731 5731 5730 5726 5724 5721 5719 5718 5716 5715 5714 5713 5713 5713 5713 5713 5714 5721 5725 5722 5718 5710 5706 5704 5702 5701 5700 5699 5698
5791 5790 5787 5783 5777 5772 5767 5759 5753 5748 5744 5741 5740 5735 5733 5734 5732 5729 5723 5719 5717 5716 5714 5713 5711 5711 5713 5716 5714 5713 5718 5718 5721 5717 5711 5705 5702 5700 5699 5697 5696 5695 5694
5794 5790 5790 5783 5778 5774 5768 5762 5757 5753 5748 5743 5742 5738 5735 5733 5730 5727 5724 5718 5716 5715 5716 5713 5713 5715 5716 5714 5715 5716 5715 5717 5715 5713 5706 5700 5699 5697 5695 5694 5692 5691 5690
5797 5791 5789 5784 5777 5773 5769 5764 5758 5755 5750 5747 5741 5737 5735 5731 5729 5728 5723 5722 5719 5717 5716 5716 5714 5712 5711 5710 5711 5711 5711 5711 5710 5707 5698 5695 5694 5693 5691 5690 5688 5687 5685
5798 5793 5789 5784 5777 5771 5766 5762 5758 5754 5751 5746 5741 5735 5733 5730 5727 5725 5722 5717 5717 5716 5714 5712 5712 5709 5708 5707 5707 5706 5704 5702 5701 5700 5695 5689 5688 5686 5685 5684 5682 5681 5679
5799 5794 5790 5782 5776 5769 5763 5759 5756 5753 5747 5746 5739 5735 5729 5727 5724 5720 5716 5712 5712 5711 5711 5709 5707 5704 5704 5703 5701 5698 5697 5696 5691 5690 5690 5684 5680 5678 5677 5676 5675 5674 5672
5801 5795 5788 5782 5776 5769 5763 5757 5754 5750 5746 5741 5736 5730 5725 5721 5717 5713 5711 5707 5706 5703 5701 5700 5699 5698 5696 5694 5691 5689 5688 5686 5684 5680 5680 5678 5676 5670 5668 5666 5666 5665 5664
5804 5795 5788 5783 5776 5768 5763 5757 5754 5749 5743 5737 5731 5725 5719 5715 5710 5705 5702 5700 5696 5694 5692 5691 5691 5689 5687 5685 5682 5679 5677 5674 5673 5671 5671 5668 5666 5664 5659 5656 5654 5654 5653
5804 5796 5788 5783 5776 5769 5761 5755 5750 5743 5736 5730 5723 5717 5711 5706 5701 5696 5692 5688 5685 5683 5682 5681 5678 5677 5674 5671 5670 5667 5667 5666 5663 5662 5660 5658 5655 5653 5652 5647 5644 5643 5641
5804 5796 5788 5781 5774 5767 5759 5750 5743 5736 5727 5719 5712 5706 5700 5695 5690 5686 5681 5676 5674 5672 5670 5668 5665 5663 5662 5660 5661 5659 5657 5656 5655 5654 5651 5649 5645 5643 5642 5638 5637 5635 5630
5802 5794 5787 5779 5772 5764 5756 5747 5737 5727 5716 5707 5700 5694 5689 5683 5679 5675 5670 5666 5663 5662 5659 5658 5656 5652 5650 5650 5651 5649 5648 5646 5645 5642 5641 5640 5637 5633 5630 5627 5626 5623 5621
5801 5793 5786 5777 5771 5762 5754 5744 5732 5719 5707 5697 5690 5685 5679 5673 5669 5665 5661 5659 5655 5653 5651 5650 5647 5645 5643 5641 5642 5641 5641 5640 5634 5635 5631 5628 5625 5623 5621 5618 5613 5608 5607
5799 5793 5786 5777 5769 5759 5749 5736 5723 5710 5700 5690 5683 5677 5672 5666 5661 5657 5653 5650 5646 5645 5642 5639 5638 5637 5636 5632 5631 5631 5631 5634 5635 5628 5622 5617 5612 5610 5607 5605 5600 5596 5592
5797 5791 5783 5773 5763 5753 5742 5731 5720 5709 5696 5687 5680 5675 5668 5662 5654 5648 5645 5642 5639 5637 5634 5631 5629 5628 5626 5626 5622 5618 5616 5614 5614 5617 5613 5609 5602 5596 5593 5589 5585 5581 5577
5787 5782 5774 5764 5754 5745 5735 5725 5716 5704 5695 5685 5676 5669 5661 5653 5647 5640 5636 5633 5630 5627 5625 5622 5619 5618 5617 5616 5615 5611 5606 5602 5599 5597 5598 5594 5590 5586 5581 5575 5569 5564 5559
5768 5764 5758 5749 5740 5732 5725 5716 5708 5697 5688 5679 5670 5661 5654 5646 5639 5633 5628 5624 5621 5618 5615 5611 5609 5607 5605 5601 5600 5598 5595 5593 5590 5586 5582 5579 5576 5573 5566 5559 5552 5547 5543